Location: Unnamed
(48.6007°N, 2.4808°E)
Time: 00:22:23
(UTC+01:00)

FENGYUN 1C DEB - Pass Details

Date: 04 December 2023
Orbit: 754 x 826 km, 99.0° (Epoch: 26 February)

Event Time Altitude Azimuth Distance (km) Brightness Sun altitude
Rises 18:10:35 0° 13° (NNE) 3,313 ? -11.8°
Reaches altitude 10° 18:12:55 10° 11° (N) 2,391 ? -12.2°
Maximum altitude 18:18:10 69° 289° (WNW) 875 ? -13.0°
Drops below altitude 10° 18:23:30 10° 207° (SSW) 2,423 ? -13.9°
Sets 18:25:52 0° 205° (SSW) 3,360 ? -14.2°
